This is the latest recevied weather packets stored in our database for station/object SV3CQY. If no packets are shown the sender has not sent any weather packets the latest 10 day(s).
| Time | Temp. | Humidity | Pressure | Rain* | Wind** | Luminosity | Snow |
|---|---|---|---|---|---|---|---|
| 1777953635 | 10.56° C | 86% | 1017.3 hPa | 0 mm | - | - | - |
| 1777950028 | 10.56° C | 84% | 1017.1 hPa | 0 mm | - | - | - |
| 1777949710 | 10.56° C | 85% | 1017.2 hPa | 0 mm | - | - | - |
| 1777948810 | 11.11° C | 85% | 1017.3 hPa | 0 mm | - | - | - |
| 1777946428 | 10.56° C | 83% | 1017.2 hPa | 0 mm | - | - | - |
| 1777942828 | 11.67° C | 83% | 1017.4 hPa | 0 mm | - | - | - |
| 1777941028 | 11.11° C | 80% | 1017.5 hPa | 0 mm | - | - | - |
| 1777938611 | 11.67° C | 77% | 1017.7 hPa | 0 mm | - | - | - |
| 1777937428 | 13.33° C | 74% | 1017.8 hPa | 0 mm | - | - | - |
| 1777936526 | 13.89° C | 82% | 1017.9 hPa | 0 mm | - | - | - |
| 1777934726 | 14.44° C | 80% | 1018.2 hPa | 0 mm | - | - | - |
| 1777934411 | 14.44° C | 81% | 1018.3 hPa | 0 mm | - | - | - |
| 1777933509 | 13.33° C | 79% | 1018.6 hPa | 0 mm | - | - | - |
| 1777928728 | 12.78° C | 78% | 1018.4 hPa | 0 mm | - | - | - |
| 1777927811 | 12.22° C | 72% | 1018.4 hPa | 0 mm | - | - | - |
| 1777926310 | 12.78° C | 70% | 1018.3 hPa | 0 mm | - | - | - |
| 1777925413 | 12.78° C | 69% | 1018.3 hPa | 0 mm | - | - | - |
| 1777924513 | 13.33° C | 67% | 1018.3 hPa | 0 mm | - | - | - |
| 1777922146 | 15° C | 62% | 1018.1 hPa | 0 mm | - | - | - |
| 1777921809 | 15° C | 62% | 1018 hPa | 0 mm | - | - | - |
| 1777917630 | 17.22° C | 54% | 1017.2 hPa | 0 mm | - | - | - |
| 1777916411 | 17.22° C | 55% | 1017.1 hPa | 0 mm | - | - | - |
| 1777915829 | 17.78° C | 54% | 1017 hPa | 0 mm | - | - | - |
| 1777915511 | 17.78° C | 51% | 1016.8 hPa | 0 mm | - | - | - |
| 1777914928 | 18.33° C | 48% | 1016.8 hPa | 0 mm | - | - | - |
* Rain latest hour (hover to see other rain measurements)
** Current wind speed in m/s (hover to see current wind gust speed)